This is the latest recevied weather packets stored in our database for station/object K6JWN. If no packets are shown the sender has not sent any weather packets the latest 10 day(s).
| Time | Temp. | Humidity | Pressure | Rain* | Wind** | Luminosity | Snow |
|---|---|---|---|---|---|---|---|
| 1787472856 | 19.44° C | 48% | 1012.6 hPa | 0 mm | - | - | - |
| 1787472256 | 19.44° C | 47% | 1012.6 hPa | 0 mm | - | - | - |
| 1787471656 | 20° C | 46% | 1012.6 hPa | 0 mm | - | - | - |
| 1787471056 | 20° C | 45% | 1012.5 hPa | 0 mm | - | - | - |
| 1787470456 | 20.56° C | 44% | 1012.6 hPa | 0 mm | - | - | - |
| 1787469856 | 21.11° C | 43% | 1012.5 hPa | 0 mm | - | - | - |
| 1787469256 | 21.67° C | 41% | 1012.5 hPa | 0 mm | - | - | - |
| 1787468656 | 21.67° C | 41% | 1012.5 hPa | 0 mm | - | - | - |
| 1787468057 | 21.67° C | 41% | 1012.5 hPa | 0 mm | - | - | - |
| 1787467457 | 21.11° C | 42% | 1012.5 hPa | 0 mm | - | - | - |
| 1787466857 | 21.11° C | 43% | 1012.6 hPa | 0 mm | - | - | - |
| 1787466257 | 21.67° C | 42% | 1012.7 hPa | 0 mm | - | - | - |
| 1787465657 | 21.67° C | 41% | 1012.7 hPa | 0 mm | - | - | - |
| 1787465057 | 21.67° C | 41% | 1012.7 hPa | 0 mm | - | - | - |
| 1787464457 | 22.22° C | 40% | 1012.8 hPa | 0 mm | - | - | - |
| 1787463857 | 22.22° C | 39% | 1012.9 hPa | 0 mm | - | - | - |
| 1787463257 | 22.22° C | 39% | 1013 hPa | 0 mm | - | - | - |
| 1787462657 | 22.78° C | 38% | 1013 hPa | 0 mm | - | - | - |
| 1787462057 | 23.33° C | 37% | 1012.8 hPa | 0 mm | - | - | - |
| 1787461457 | 23.33° C | 37% | 1012.8 hPa | 0 mm | - | - | - |
| 1787460857 | 23.33° C | 36% | 1012.8 hPa | 0 mm | - | - | - |
| 1787460257 | 23.89° C | 36% | 1012.7 hPa | 0 mm | - | - | - |
| 1787459657 | 23.89° C | 35% | 1012.7 hPa | 0 mm | - | - | - |
| 1787459057 | 24.44° C | 34% | 1012.6 hPa | 0 mm | - | - | - |
| 1787458457 | 25° C | 34% | 1012.5 hPa | 0 mm | - | - | - |
* Rain latest hour (hover to see other rain measurements)
** Current wind speed in m/s (hover to see current wind gust speed)